RH
8 11 13 14 15 17 18 18 17 15 14 20 30 25 20 22 21 17 14 13 12 12 13 12 11 15 13 16 17 18 20 24 28 29 30 34 37 38 44 50 55 64 65 57 58 56 56
7 8 10 11 12 14 13 12 10 9 8 10 25 31 24 22 22 21 17 14 14 12 13 14 12 14 15 14 18 20 22 25 29 30 32 39 40 39 43 49 57 62 64 64 67 68 66
7 8 8 9 10 10 10 10 10 10 7 7 16 30 29 25 23 23 22 18 15 14 13 14 15 13 14 16 15 19 22 26 29 31 33 34 39 41 41 46 50 58 57 56 61 64 66
8 8 8 9 9 9 10 13 15 15 13 7 11 28 30 30 26 24 25 24 20 16 14 14 16 14 14 13 16 16 23 22 24 29 33 37 35 42 44 41 44 46 60 55 56 64 70
8 9 9 10 10 12 16 18 18 16 14 11 7 17 27 31 31 27 28 28 25 19 15 15 17 16 16 14 14 16 18 21 22 23 27 30 29 31 35 41 45 54 58 56 52 59 66
10 10 11 12 14 17 19 20 20 19 16 13 8 8 20 29 30 29 29 28 26 21 16 18 21 18 18 16 16 14 16 18 19 19 21 22 26 29 38 50 57 55 59 54 53 56 62
11 12 13 16 18 20 21 21 17 12 15 16 12 8 12 24 28 27 30 24 24 20 19 19 23 21 21 18 18 17 16 15 16 17 16 17 22 30 35 44 44 50 57 57 43 55 61
11 13 16 19 21 22 22 21 17 12 8 12 16 11 9 18 25 25 28 21 21 23 19 19 22 24 24 24 19 19 18 18 16 16 17 19 20 24 29 36 41 38 43 40 41 46 56
13 12 15 17 19 21 21 21 20 16 11 8 10 16 13 11 17 24 22 22 20 21 16 20 21 21 25 24 23 22 23 21 19 18 20 19 18 23 28 27 30 26 34 45 48 51 49
13 11 14 16 18 19 19 19 19 19 17 13 11 7 10 14 13 12 18 19 20 21 18 19 20 21 23 24 24 25 28 27 23 22 24 26 25 23 25 30 28 24 33 37 45 57 62
18 16 14 16 17 17 16 17 16 16 17 18 16 14 10 6 10 14 11 14 18 23 41 20 19 18 20 22 23 25 26 26 27 25 28 30 25 26 26 26 32 24 27 36 38 51 57
22 15 13 15 16 16 15 14 13 13 13 14 16 17 16 13 9 8 13 12 14 26 26 20 19 16 17 14 18 19 25 24 25 22 26 30 29 32 31 35 30 26 26 26 35 51 72
11 12 13 13 14 15 15 14 12 10 7 8 11 14 16 17 14 11 7 12 18 30 22 21 18 18 17 15 15 14 19 24 26 25 26 26 29 33 33 38 27 29 31 42 48 61 62
11 10 12 12 12 13 13 13 13 12 8 7 5 6 11 14 15 13 10 10 16 13 16 18 19 16 20 18 18 18 15 23 27 30 32 33 28 33 36 40 37 34 46 48 58 76 64
14 14 13 13 12 12 12 12 13 12 11 9 6 5 5 8 11 12 10 11 9 10 15 20 18 18 20 20 22 22 18 20 27 31 34 37 31 30 38 40 41 32 43 48 60 60 76
19 13 12 12 13 13 13 12 12 12 12 11 9 7 5 6 6 8 10 10 11 11 11 17 25 18 22 22 24 24 21 19 24 31 36 37 37 27 31 39 43 34 46 45 46 64 64
30 39 32 20 15 13 12 12 12 11 12 12 11 10 9 7 6 6 8 8 9 10 12 20 22 19 20 25 24 28 25 22 25 31 34 37 40 25 30 36 42 39 44 46 46 51 72
2 2 2 4 11 23 26 22 20 18 15 13 15 16 18 14 9 8 7 8 10 12 13 16 10 8 10 15 26 32 28 27 25 31 36 36 41 34 26 34 41 43 47 51 49 50 51
4 2 1 1 1 1 1 1 1 3 8 14 16 18 22 25 26 18 12 7 6 6 5 6 7 9 12 19 34 31 26 24 29 30 36 38 42 42 29 33 39 46 46 49 55 56 58
1 1 1 1 1 1 1 1 1 1 1 1 1 3 9 18 27 30 30 23 15 10 8 7 7 8 12 14 27 40 34 34 33 35 39 44 41 39 40 37 43 41 47 54 61 68 64
1 1 1 1 1 1 1 1 1 1 1 1 2 8 20 18 44 47 44 34 25 30 41 31 20 15 14 27 28 32 34 38 37 34 40 47 46 43 38 38 43 37 34 48 59 55 68
2 2 2 1 1 1 1 1 1 1 1 1 2 5 15 20 30 38 62 58 48 41 44 39 46 40 28 29 35 37 42 43 37 41 44 46 52 52 47 41 40 38 27 41 48 51 50
2 2 2 1 1 1 1 1 1 1 1 1 2 2 3 11 20 46 43 38 59 82 67 65 59 61 71 55 44 35 46 55 60 54 51 55 57 61 62 54 49 40 26 35 46 46 49
2 2 2 2 2 2 2 2 2 2 2 2 2 2 2 3 4 9 27 50 52 62 83 76 76 77 64 70 63 61 54 46 66 69 63 60 61 67 70 66 77 28 30 30 42 37 43
4 4 4 4 5 4 5 4 4 3 3 3 3 3 4 3 4 4 4 7 8 18 36 64 53 82 85 79 78 82 80 64 64 65 66 62 64 72 70 62 47 36 28 33 38 31 40
4 5 6 6 7 7 9 8 7 6 6 5 5 5 5 7 12 34 41 58 56 36 21 19 29 41 69 88 98 91 89 74 58 56 52 65 70 77 82 79 80 31 30 37 44 42 33
5 7 8 14 23 26 31 25 43 36 27 20 17 14 12 10 7 15 22 35 55 62 62 57 51 71 73 91 100 99 91 83 77 62 50 56 94 88 88 82 61 46 37 45 59 38 34
6 7 10 13 20 71 89 60 44 44 32 31 27 24 25 18 7 7 10 17 51 66 41 35 42 46 95 99 96 99 91 83 78 73 66 56 62 78 100 100 88 25 43 45 40 43 41
9 11 15 20 29 41 95 97 77 61 48 94 83 50 43 38 13 11 11 20 9 18 33 24 25 66 86 97 98 100 94 92 81 83 73 71 62 53 50 38 27 36 36 42 49 51 50
Wind_Speed
4 3 3 3 3 4 5 6 7 7 8 9 9 9 10 10 10 11 10 9 8 7 11 15 17 18 20 18 17 18 17 17 18 19 19 19 21 22 22 17 16 19 14 13 16 18 17
3 2 1 1 2 3 5 6 8 8 8 8 8 9 9 10 10 10 10 9 9 7 9 12 14 14 19 17 19 18 17 18 19 19 17 17 18 20 22 18 18 18 10 14 9 11 15
4 3 2 1 2 3 5 7 8 9 8 7 6 7 9 10 9 10 11 10 10 10 8 10 12 11 14 16 18 18 16 16 17 17 16 16 15 17 19 20 21 18 15 17 14 15 16
3 3 3 2 3 4 5 7 8 8 9 8 6 6 7 9 10 10 11 11 11 10 8 10 11 9 11 15 16 17 16 15 16 17 16 13 13 15 19 21 18 18 13 22 19 20 19
4 4 4 3 3 3 4 6 8 9 9 9 8 7 6 8 9 10 11 12 12 11 7 8 9 9 11 13 13 14 14 15 16 16 14 13 12 14 18 23 21 17 24 25 22 23 25
6 5 5 5 3 4 4 6 8 9 10 9 9 7 7 7 8 9 10 12 12 8 5 7 9 7 13 13 13 12 13 13 14 15 16 14 14 13 16 20 21 24 28 29 32 28 24
7 7 7 7 6 5 6 6 7 9 10 10 10 9 7 7 9 10 10 12 12 6 5 3 8 8 12 13 14 13 15 13 13 16 17 18 14 13 15 18 23 26 28 31 26 17 28
8 9 9 9 8 7 7 8 9 9 9 10 10 10 9 9 9 10 11 13 12 8 2 1 8 8 12 14 11 13 14 16 16 16 17 17 11 15 18 19 23 24 27 25 26 30 30
11 11 11 11 10 10 9 9 9 9 9 9 10 10 11 10 10 11 11 12 13 9 4 3 8 8 12 14 10 13 16 18 18 16 19 14 12 17 17 18 22 26 19 27 30 25 17
13 14 14 14 13 12 11 11 11 11 11 11 11 11 11 12 12 12 12 12 14 11 7 6 8 8 11 12 10 12 15 15 16 16 16 12 19 16 15 16 22 30 26 28 22 20 10
15 14 16 16 16 15 14 13 14 13 13 13 12 12 11 12 12 13 14 14 14 7 3 5 7 9 9 11 10 12 16 15 16 12 16 17 14 12 12 16 22 23 25 23 12 11 10
18 19 18 19 19 18 18 17 16 17 15 15 14 14 13 13 13 13 14 14 13 5 4 3 6 10 8 10 9 12 12 11 14 16 16 14 10 12 13 22 14 20 26 4 6 7 1
23 23 21 21 22 22 20 21 21 20 18 18 18 17 16 15 14 14 13 14 8 5 4 3 8 11 10 11 10 12 12 9 11 13 19 13 9 15 13 23 9 16 22 8 5 5 4
26 26 24 24 25 25 24 25 24 23 22 21 22 20 20 19 17 16 15 13 7 8 9 13 12 13 12 9 12 13 14 9 9 12 15 11 8 15 13 19 14 13 12 4 3 2 6
28 29 29 28 28 28 29 28 28 26 25 24 23 24 23 21 20 19 18 15 9 12 9 11 17 12 8 9 12 12 15 9 8 8 8 7 8 12 11 17 9 10 10 8 5 6 4
33 33 34 34 33 33 33 32 32 29 28 28 28 26 25 23 22 22 21 25 23 20 20 18 16 9 13 15 14 11 12 9 11 8 10 10 13 8 19 8 8 8 7 6 6 3 4
35 37 37 37 37 37 37 37 37 36 33 32 32 30 29 27 25 24 24 26 25 22 18 15 14 16 20 21 20 18 9 14 11 10 12 13 7 11 14 8 12 7 5 5 7 4 2
30 31 33 34 35 35 37 38 38 39 37 37 35 34 29 27 25 24 25 23 23 21 18 18 25 26 24 23 23 21 18 17 14 14 15 10 9 14 18 7 7 5 7 9 5 2 8
30 31 31 32 32 33 33 33 32 33 35 34 34 36 34 32 34 34 32 32 32 32 31 29 28 25 23 24 18 13 15 19 17 16 8 13 7 10 11 5 9 11 15 20 12 10 13
26 27 27 27 25 27 27 29 29 29 31 29 29 28 28 31 33 33 32 33 33 32 31 29 30 27 24 25 24 20 23 18 19 21 20 16 16 16 14 20 20 26 25 21 17 18 19
21 21 22 23 22 22 21 22 23 23 25 26 26 25 26 21 17 20 23 28 21 14 14 17 23 20 16 23 22 23 22 24 22 25 23 19 20 21 24 24 25 21 24 16 18 21 22
21 21 21 23 23 23 25 23 22 21 21 21 23 25 27 28 27 29 30 33 32 30 28 29 29 27 29 32 25 25 24 25 28 24 22 23 21 23 28 26 23 24 25 14 13 14 19
24 25 25 25 25 25 24 25 25 22 21 22 24 26 27 32 28 26 29 31 35 32 35 31 28 28 28 28 28 28 30 32 31 27 26 26 25 21 18 22 19 23 13 12 15 13 14
26 26 26 27 27 28 26 24 24 23 22 23 24 25 28 37 35 34 35 31 32 31 36 36 28 29 28 24 28 30 32 33 34 34 32 31 28 24 18 20 3 19 13 15 11 12 13
28 28 26 26 26 27 27 27 24 23 24 23 24 26 29 37 38 39 37 39 39 40 41 39 34 36 34 30 29 25 32 35 38 35 36 35 34 22 10 15 23 25 25 11 10 15 12
31 30 30 29 28 27 25 25 26 24 25 25 25 27 29 36 41 23 22 20 26 31 33 37 38 34 29 35 32 35 25 21 15 15 30 40 38 32 17 7 8 9 11 12 11 16 10
29 30 30 29 28 27 26 23 22 24 27 28 26 27 30 35 40 32 33 34 32 36 41 40 29 23 24 33 37 38 38 32 37 34 24 24 34 39 35 20 20 20 24 19 10 10 12
33 32 32 31 30 25 23 23 22 23 24 28 27 26 32 40 47 44 38 43 37 38 44 42 39 33 22 29 36 34 36 41 43 45 43 40 32 29 26 17 18 28 25 26 17 14 14
34 33 32 31 29 28 22 25 23 23 22 22 28 25 29 37 48 47 46 48 46 47 49 50 45 36 10 14 27 28 36 36 38 43 42 44 48 40 37 39 37 16 14 18 16 17 15
Wind_Direction
124 115 94 63 44 33 19 14 8 6 8 9 11 13 8 6 4 357 350 342 333 339 2 6 9 14 17 23 24 29 28 22 19 17 15 15 14 15 15 20 11 358 320 310 299 297 288
164 153 113 57 15 11 9 7 5 1 357 0 6 8 6 1 0 357 350 340 337 318 347 1 4 9 14 19 19 26 22 19 18 16 13 18 17 18 16 7 1 347 0 343 328 333 318
195 220 209 245 312 349 359 5 5 1 357 354 3 2 2 358 355 355 349 346 335 332 321 350 360 5 9 16 17 20 20 19 13 13 11 14 12 11 6 7 353 348 342 359 357 348 343
234 256 272 291 325 347 1 3 359 355 353 352 352 359 1 358 354 353 350 346 342 328 314 341 352 0 9 7 12 14 12 10 14 9 6 358 1 3 1 359 358 1 345 349 350 349 340
259 270 280 292 317 336 357 1 2 359 353 350 349 345 352 357 357 355 352 349 344 333 321 334 347 351 1 359 3 6 6 3 4 2 356 351 354 1 354 351 355 348 337 336 337 341 330
279 280 283 285 295 316 337 351 350 356 357 353 346 343 340 348 352 356 357 351 346 338 332 340 357 1 352 354 354 353 358 357 354 350 346 346 349 350 347 341 333 326 328 327 328 334 324
289 291 289 288 293 303 316 327 338 341 348 353 350 344 340 337 347 354 357 359 351 1 325 354 359 360 355 355 350 345 345 342 342 341 343 341 339 343 340 336 332 323 318 316 335 344 321
292 290 286 287 290 295 303 312 323 333 340 345 350 348 346 339 342 347 352 359 1 343 296 322 0 0 354 356 358 346 343 340 342 345 337 329 329 338 330 333 324 319 320 332 335 333 325
300 289 287 283 284 287 293 299 305 314 323 335 340 344 347 343 341 339 343 346 351 351 168 0 360 360 358 354 353 349 348 344 343 349 340 325 331 330 329 337 326 330 331 329 327 333 329
281 284 282 282 281 282 284 289 294 300 306 314 325 334 339 342 340 334 334 341 342 344 182 354 354 358 355 354 357 349 348 346 346 340 347 337 336 332 333 336 333 325 335 328 328 330 322
258 267 276 274 275 278 279 281 284 287 291 298 304 313 324 331 335 336 334 331 335 335 26 321 345 356 359 358 349 353 347 350 349 346 335 344 348 343 347 349 339 327 331 330 322 325 323
269 263 265 268 271 271 273 273 273 276 281 284 288 294 302 310 320 325 327 326 326 308 253 304 347 352 349 356 354 356 356 354 350 353 357 353 344 350 342 353 344 340 346 322 320 323 335
267 270 270 268 270 271 273 273 275 276 277 279 281 284 288 293 301 308 314 318 317 236 279 269 326 327 323 333 339 350 350 349 351 345 353 7 346 350 348 351 4 358 8 353 353 358 237
264 267 268 269 270 270 269 272 273 276 277 279 280 280 282 284 288 292 296 298 257 265 277 293 303 310 299 312 325 329 336 333 344 347 337 336 338 345 339 352 346 4 13 54 286 309 297
269 271 272 273 273 271 271 270 272 273 275 276 276 277 277 277 280 283 286 272 264 278 276 284 302 302 276 296 317 312 325 303 330 341 345 315 310 337 333 344 355 351 359 346 283 275 304
272 271 272 274 273 274 276 276 274 275 276 276 274 275 276 277 277 276 271 269 270 275 283 285 286 277 280 300 309 307 314 302 315 319 334 318 305 329 346 349 345 342 343 346 340 341 313
278 276 273 271 273 274 274 276 277 277 276 275 277 279 278 277 276 270 264 269 276 280 283 278 278 288 290 293 295 292 279 296 290 304 316 317 297 318 335 325 319 321 323 345 323 270 211
282 280 280 277 275 275 274 275 276 276 274 275 275 276 276 272 270 266 268 274 275 274 274 273 281 283 285 288 284 282 281 283 289 293 300 300 289 296 323 314 309 276 297 333 300 272 288
287 284 281 280 280 280 279 276 275 275 275 272 270 269 265 266 265 268 271 272 273 274 275 277 279 278 282 283 277 268 279 284 289 286 276 298 283 300 319 303 319 296 287 306 270 271 267
286 288 287 286 286 287 286 283 280 277 275 275 273 271 266 262 262 265 269 270 269 270 273 272 272 272 276 274 275 265 274 276 282 285 286 281 277 268 263 293 300 301 298 304 271 278 266
291 291 292 294 296 294 290 289 287 281 279 277 274 273 266 254 259 253 251 250 257 258 262 263 265 267 273 278 282 282 279 275 280 282 277 271 269 278 291 298 303 293 310 306 278 278 260
294 295 297 297 298 297 295 292 289 288 285 279 271 270 269 268 258 251 246 258 254 250 254 258 264 269 277 277 275 280 276 275 282 275 270 267 269 281 288 299 301 291 305 289 297 301 291
297 297 296 294 295 293 291 291 291 289 283 279 278 275 275 275 271 267 263 259 261 262 261 260 261 259 258 268 281 275 268 272 271 265 265 265 268 276 279 292 293 293 279 301 309 312 307
293 292 293 294 295 293 292 290 290 288 282 278 274 272 272 274 274 272 270 265 263 261 265 263 238 251 252 261 261 262 263 269 261 255 259 259 265 266 274 289 233 272 262 294 291 310 312
290 291 290 291 294 295 297 296 293 290 288 284 279 276 273 273 277 274 275 274 270 265 261 265 263 250 255 256 269 277 269 265 260 257 253 252 254 246 243 241 269 260 277 258 282 302 318
289 290 292 293 293 293 293 296 295 292 292 289 283 279 277 279 291 280 282 278 284 278 270 266 265 265 253 259 263 251 244 251 248 243 245 239 238 239 224 229 225 241 244 269 273 295 320
286 286 287 289 292 292 295 298 302 305 302 298 296 293 286 281 285 287 276 282 280 271 275 279 283 274 249 244 251 243 247 248 248 251 251 237 228 228 231 241 256 235 262 256 236 263 298
286 286 285 283 281 280 284 287 291 291 293 293 289 291 290 285 279 277 278 266 267 267 273 277 284 260 254 243 243 247 248 246 250 251 250 243 235 226 219 227 260 266 239 240 249 273 295
283 281 279 279 277 272 275 279 283 288 294 290 288 293 290 284 281 283 280 280 286 285 282 279 270 255 226 237 237 245 242 248 244 245 247 242 242 243 241 250 256 262 257 229 259 283 294